When you browse on this site, cookies collect data to enhance your experience and personalize the content and advertising you see.
Visit our Privacy Policy to learn more. By continuing to use the site, you agree to this use of cookies and data.
  • In Sweden
  • List of Countries
  • For 7 days
  • Water Temperature
  • Weather Map
  • Weather Widgets
  • user-avatar
    Login

    Hourly Weather Bangalore

    Today, 24 February, Monday

    Time Temperature Precipitation Wind Pressure Humidity
    00:00 +20°C° 0 mm 5 mps 685 mmHg 87%
    01:00 +19°C° 0 mm 4 mps 685 mmHg 87%
    02:00 +19°C° 0 mm 4 mps 684 mmHg 88%
    03:00 +18°C° 0 mm 3 mps 684 mmHg 90%
    04:00 +18°C° 0 mm 3 mps 684 mmHg 91%
    05:00 +18°C° 0 mm 2 mps 683 mmHg 94%
    06:00 +19°C° 0 mm 2 mps 684 mmHg 85%
    07:00 +20°C° 0 mm 3 mps 685 mmHg 76%
    08:00 +21°C° 0 mm 3 mps 685 mmHg 67%
    09:00 +25°C° 0 mm 3 mps 686 mmHg 53%
    10:00 +27°C° 0 mm 4 mps 686 mmHg 39%
    11:00 +29°C° 0 mm 4 mps 686 mmHg 25%
    12:00 +30°C° 0 mm 4 mps 686 mmHg 23%
    13:00 +32°C° 0 mm 4 mps 685 mmHg 21%
    14:00 +33°C° 0 mm 4 mps 684 mmHg 20%
    15:00 +33°C° 0 mm 4 mps 684 mmHg 21%
    16:00 +32°C° 0 mm 4 mps 683 mmHg 23%
    17:00 +32°C° 0 mm 4 mps 683 mmHg 25%
    18:00 +29°C° 0 mm 4 mps 683 mmHg 31%
    19:00 +27°C° 0 mm 4 mps 684 mmHg 38%
    20:00 +25°C° 0 mm 4 mps 684 mmHg 44%
    21:00 +23°C° 0 mm 4 mps 684 mmHg 52%
    22:00 +22°C° 0 mm 4 mps 684 mmHg 59%
    23:00 +21°C° 0 mm 4 mps 684 mmHg 66%

    Tomorrow, 25 February, Tuesday

    Time Temperature Precipitation Wind Pressure Humidity
    00:00 +20°C° 0 mm 4 mps 683 mmHg 74%
    01:00 +19°C° 0 mm 3 mps 683 mmHg 81%
    02:00 +18°C° 0 mm 3 mps 682 mmHg 89%
    03:00 +18°C° 0 mm 3 mps 682 mmHg 89%
    04:00 +18°C° 0 mm 3 mps 682 mmHg 90%
    05:00 +18°C° 0 mm 2 mps 682 mmHg 91%
    06:00 +19°C° 0 mm 3 mps 683 mmHg 83%
    07:00 +20°C° 0 mm 3 mps 684 mmHg 75%
    08:00 +22°C° 0 mm 3 mps 685 mmHg 68%
    09:00 +25°C° 0 mm 3 mps 685 mmHg 54%
    10:00 +28°C° 0 mm 3 mps 685 mmHg 40%
    11:00 +31°C° 0 mm 3 mps 685 mmHg 26%
    12:00 +33°C° 0 mm 3 mps 684 mmHg 24%
    13:00 +34°C° 0 mm 3 mps 684 mmHg 21%
    14:00 +34°C° 0 mm 3 mps 683 mmHg 19%
    15:00 +34°C° 0 mm 3 mps 683 mmHg 19%
    16:00 +34°C° 0 mm 3 mps 682 mmHg 20%
    17:00 +33°C° 0 mm 3 mps 682 mmHg 21%
    18:00 +30°C° 0 mm 3 mps 682 mmHg 27%
    19:00 +28°C° 0 mm 4 mps 683 mmHg 32%
    20:00 +26°C° 0 mm 4 mps 683 mmHg 38%
    21:00 +25°C° 0 mm 4 mps 683 mmHg 45%
    22:00 +23°C° 0 mm 4 mps 683 mmHg 52%
    23:00 +22°C° 0 mm 4 mps 683 mmHg 59%

    Day after tomorrow, 26 February, Wednesday

    Time Temperature Precipitation Wind Pressure Humidity
    00:00 +21°C° 0 mm 4 mps 683 mmHg 65%
    01:00 +20°C° 0 mm 3 mps 682 mmHg 72%
    02:00 +20°C° 0 mm 3 mps 682 mmHg 78%
    03:00 +19°C° 0 mm 2 mps 682 mmHg 78%
    04:00 +19°C° 0 mm 2 mps 682 mmHg 78%
    05:00 +19°C° 0 mm 2 mps 682 mmHg 77%
    06:00 +20°C° 0 mm 2 mps 683 mmHg 70%
    07:00 +23°C° 0 mm 2 mps 684 mmHg 64%
    08:00 +24°C° 0 mm 2 mps 685 mmHg 57%
    09:00 +27°C° 0 mm 2 mps 685 mmHg 48%
    10:00 +29°C° 0 mm 2 mps 685 mmHg 40%
    11:00 +31°C° 0 mm 2 mps 686 mmHg 31%
    12:00 +32°C° 0 mm 2 mps 685 mmHg 29%
    13:00 +34°C° 0 mm 2 mps 684 mmHg 26%
    14:00 +35°C° 0 mm 2 mps 683 mmHg 23%
    15:00 +35°C° 0 mm 3 mps 683 mmHg 24%
    16:00 +34°C° 0 mm 3 mps 683 mmHg 24%
    17:00 +34°C° 0 mm 3 mps 683 mmHg 25%
    18:00 +32°C° 0 mm 4 mps 683 mmHg 32%
    19:00 +29°C° 0 mm 4 mps 683 mmHg 38%
    20:00 +27°C° 0 mm 5 mps 684 mmHg 45%
    21:00 +26°C° 0 mm 5 mps 684 mmHg 52%
    22:00 +25°C° 0 mm 5 mps 684 mmHg 60%
    23:00 +23°C° 0 mm 5 mps 684 mmHg 67%

    27 February, Thursday

    Time Temperature Precipitation Wind Pressure Humidity
    00:00 +22°C° 0 mm 4 mps 683 mmHg 72%
    01:00 +21°C° 0 mm 3 mps 683 mmHg 77%
    02:00 +20°C° 0 mm 2 mps 683 mmHg 82%
    03:00 +20°C° 0 mm 2 mps 683 mmHg 84%
    04:00 +19°C° 0 mm 2 mps 683 mmHg 86%
    05:00 +19°C° 0 mm 2 mps 683 mmHg 88%
    06:00 +20°C° 0 mm 3 mps 683 mmHg 78%
    07:00 +22°C° 0 mm 3 mps 684 mmHg 69%
    08:00 +24°C° 0 mm 3 mps 685 mmHg 60%
    09:00 +26°C° 0 mm 4 mps 685 mmHg 49%
    10:00 +29°C° 0 mm 4 mps 686 mmHg 39%
    11:00 +32°C° 0 mm 4 mps 686 mmHg 28%
    12:00 +33°C° 0 mm 4 mps 685 mmHg 27%
    13:00 +34°C° 0 mm 4 mps 684 mmHg 25%
    14:00 +34°C° 0 mm 4 mps 683 mmHg 24%
    15:00 +34°C° 0 mm 4 mps 683 mmHg 25%
    16:00 +34°C° 0 mm 4 mps 683 mmHg 26%
    17:00 +33°C° 0 mm 5 mps 683 mmHg 27%
    18:00 +30°C° 0 mm 5 mps 683 mmHg 34%
    19:00 +28°C° 0 mm 5 mps 683 mmHg 42%
    20:00 +26°C° 0 mm 5 mps 684 mmHg 49%
    21:00 +25°C° 0 mm 5 mps 684 mmHg 55%
    22:00 +23°C° 0 mm 5 mps 684 mmHg 60%
    23:00 +22°C° 0 mm 5 mps 684 mmHg 66%

    28 February, Friday

    Time Temperature Precipitation Wind Pressure Humidity
    00:00 +21°C° 0 mm 4 mps 683 mmHg 70%
    01:00 +20°C° 0 mm 4 mps 683 mmHg 75%
    02:00 +20°C° 0 mm 3 mps 682 mmHg 80%
    03:00 +19°C° 0 mm 3 mps 682 mmHg 82%
    04:00 +19°C° 0 mm 2 mps 682 mmHg 84%
    05:00 +18°C° 0 mm 2 mps 682 mmHg 86%
    06:00 +20°C° 0 mm 2 mps 683 mmHg 73%
    07:00 +22°C° 0 mm 3 mps 684 mmHg 59%
    08:00 +25°C° 0 mm 3 mps 685 mmHg 46%
    09:00 +27°C° 0 mm 3 mps 685 mmHg 41%
    10:00 +29°C° 0 mm 4 mps 685 mmHg 36%
    11:00 +32°C° 0 mm 4 mps 685 mmHg 31%
    12:00 +33°C° 0 mm 4 mps 684 mmHg 29%
    13:00 +33°C° 0 mm 3 mps 683 mmHg 27%
    14:00 +34°C° 0 mm 3 mps 682 mmHg 25%
    15:00 +33°C° 0 mm 4 mps 682 mmHg 27%
    16:00 +32°C° 0 mm 4 mps 682 mmHg 29%
    17:00 +32°C° 0 mm 4 mps 682 mmHg 31%
    18:00 +29°C° 0 mm 4 mps 682 mmHg 36%
    19:00 +28°C° 0 mm 4 mps 683 mmHg 41%
    20:00 +26°C° 0 mm 5 mps 683 mmHg 46%
    21:00 +25°C° 0 mm 5 mps 683 mmHg 54%
    22:00 +23°C° 0 mm 5 mps 683 mmHg 62%
    23:00 +22°C° 0 mm 6 mps 683 mmHg 70%

    29 February, Saturday

    Time Temperature Precipitation Wind Pressure Humidity
    00:00 +21°C° 0 mm 5 mps 683 mmHg 75%
    01:00 +20°C° 0 mm 4 mps 682 mmHg 80%
    02:00 +19°C° 0 mm 3 mps 682 mmHg 85%
    03:00 +19°C° 0 mm 3 mps 682 mmHg 85%
    04:00 +19°C° 0 mm 2 mps 682 mmHg 85%
    05:00 +19°C° 0 mm 2 mps 682 mmHg 84%
    06:00 +20°C° 0 mm 2 mps 683 mmHg 75%
    07:00 +23°C° 0 mm 2 mps 684 mmHg 66%
    08:00 +24°C° 0 mm 3 mps 685 mmHg 57%
    09:00 +26°C° 0 mm 3 mps 685 mmHg 49%
    10:00 +28°C° 0 mm 3 mps 685 mmHg 40%
    11:00 +30°C° 0 mm 3 mps 685 mmHg 31%
    12:00 +31°C° 0 mm 3 mps 684 mmHg 29%
    13:00 +33°C° 0 mm 3 mps 683 mmHg 26%
    14:00 +34°C° 0 mm 3 mps 682 mmHg 24%
    15:00 +34°C° 0 mm 3 mps 682 mmHg 24%
    16:00 +34°C° 0 mm 3 mps 682 mmHg 23%
    17:00 +33°C° 0 mm 3 mps 682 mmHg 23%
    18:00 +30°C° 0 mm 4 mps 682 mmHg 28%
    19:00 +28°C° 0 mm 4 mps 683 mmHg 33%
    20:00 +27°C° 0 mm 5 mps 683 mmHg 38%
    21:00 +25°C° 0 mm 5 mps 683 mmHg 44%
    22:00 +23°C° 0 mm 4 mps 683 mmHg 50%
    23:00 +22°C° 0 mm 3 mps 683 mmHg 57%
    Show more